Regional Weather Roundup
Issued by NWS

Home | Current Version | Previous Version | Graphics & Text | Print | Product List | Glossary On
Versions: 1 2 3 4 5 6 7 8 9 10 11 12 13 14 15 16 17 18 19 20 21 22 23 24 25 26 27 28 29 30 31 32 33 34 35 36 37 38 39 40 41 42 43 44 45 46 47 48 49 50
000
ASUS43 KLMK 271502
RWRKY
KENTUCKY REGIONAL WEATHER ROUNDUP
NATIONAL WEATHER SERVICE LOUISVILLE KY
1000 AM EST FRI FEB 27 2015

NOTE "FAIR" INDICATES FEW OR NO CLOUDS BELOW 12,000 FEET
WITH NO SIGNIFICANT WEATHER AND/OR OBSTRUCTIONS TO VISIBILITY.

KYZ001>023-026-027-061>063-070>075-271600-
WESTERN AND SOUTH CENTRAL KENTUCKY

CITY           SKY/WX    TMP DP  RH WIND       PRES   REMARKS
PADUCAH        SUNNY     14   6  70 N9        30.64R WCI   2
HENDERSON      SUNNY     16   9  73 NW6       30.65R WCI   7
OWENSBORO      SUNNY     16   8  70 VRB5      30.63R WCI   9
HOPKINSVILLE   SUNNY     18   9  68 N13       30.59R WCI   4
BOWLING GREEN  CLOUDY    21  11  65 NE7       30.59R WCI  12
GLASGOW        NOT AVBL
$$

KYZ024-025-028>034-038-045-046-053-271600-
NORTH CENTRAL KENTUCKY

CITY           SKY/WX    TMP DP  RH WIND       PRES   REMARKS
LOUISVILLE/SDF MOSUNNY   19   4  51 VRB6      30.61R WCI  11
LOUISVILLE/LOU SUNNY     18   3  52 N6        30.60R WCI  10
FORT KNOX      SUNNY     18   5  57 NE6       30.56R WCI   9
$$

KYZ035>037-039>044-047>052-055>060-089>105-271600-
NORTHEAST KENTUCKY

CITY           SKY/WX    TMP DP  RH WIND       PRES   REMARKS
LEXINGTON      SUNNY     15   7  70 N6        30.55R WCI   6
COVINGTON      SUNNY     14   1  56 CALM      30.55R
FRANKFORT      SUNNY     15   5  64 CALM      30.56R
$$

KYZ054-064>069-076>088-106>120-271600-
SOUTHEAST KENTUCKY

CITY           SKY/WX    TMP DP  RH WIND       PRES   REMARKS
JACKSON        SUNNY     17   5  59 VRB5      30.48R WCI  10
LONDON         SUNNY     18   4  54 N8        30.49S WCI   8
SOMERSET       NOT AVBL
MIDDLESBORO    CLOUDY    21  12  69 N7        30.48R WCI  12
MONTICELLO     SUNNY     19   9  65 NE6       30.56R WCI  11
$$




USA.gov is the U.S. government's official web portal to all federal, state and local government web resources and services.